Location: ??????
(56.0120°N, 39.1740°E)
Time: 15:43:39
(UTC+00:00)

Cosmos 2297 - Pass Details

Date: 14 April 2026
Orbit: 833 x 859 km, 71.0° (Epoch: 16 May)

Event Time Altitude Azimuth Distance (km) Brightness Sun altitude
Rises 20:06:06 0° 324° (NW) 3,445 8.2 -22.4°
Reaches altitude 10° 20:08:38 10° 318° (NW) 2,506 7.1 -22.5°
Maximum altitude 20:14:06 46° 247° (WSW) 1,138 4.3 -22.8°
Enters shadow 20:15:30 39° 210° (SSW) 1,271 4.3 -22.8°
